Location: Brookfield Center
(41.2406°N, 80.5579°W)
Time: 09:44:06
(UTC+00:00)

Abrixas rocket - Pass Details

Date: 18 January 2020
Orbit: 353 x 361 km, 48.4° (Epoch: 18 February)

Event Time Altitude Azimuth Distance (km) Brightness Sun altitude
Exits shadow 11:09:31 20° 2° (N) 911 3.8 -17.6°
Maximum altitude 11:09:31 20° 2° (N) 911 3.8 -17.6°
Drops below altitude 10° 11:11:53 10° 53° (NE) 1,354 5.4 -17.2°
Sets 11:14:15 0° 71° (ENE) 2,204 6.9 -16.7°
